Time,TemperatureF,DewpointF,PressureIn,WindDirection,WindDirectionDegrees,WindSpeedMPH,WindSpeedGustMPH,Humidity,HourlyPrecipIn,Conditions,Clouds,dailyrainin,SoftwareType,DateUTC
2013-11-23 00:01:00,56.6,39.2,30.38,SSE,149,0.0,0.0,52,0.00,,OVC017,0.00,VWS V14.01,2013-11-23 06:01:00,
2013-11-23 00:11:00,56.6,39.2,30.38,SSE,149,0.0,0.0,52,0.00,,OVC017,0.00,VWS V14.01,2013-11-23 06:11:00,
2013-11-23 00:16:00,56.6,39.2,30.37,SSE,149,0.0,0.0,52,0.00,,OVC017,0.00,VWS V14.01,2013-11-23 06:16:00,
2013-11-23 00:26:00,56.6,39.2,30.37,SSE,149,0.0,0.0,52,0.00,,OVC017,0.00,VWS V14.01,2013-11-23 06:26:00,
2013-11-23 00:31:00,56.6,39.2,30.38,SSE,149,0.0,0.0,52,0.00,,OVC017,0.00,VWS V14.01,2013-11-23 06:31:00,
2013-11-23 00:36:00,56.6,39.2,30.38,SSE,149,0.0,0.0,52,0.00,,OVC018,0.00,VWS V14.01,2013-11-23 06:36:00,
2013-11-23 00:46:00,56.6,39.2,30.38,SSE,149,0.0,0.0,52,0.00,,OVC018,0.00,VWS V14.01,2013-11-23 06:46:00,
2013-11-23 00:51:00,56.6,39.2,30.38,SSE,149,0.0,0.0,52,0.00,,OVC018,0.00,VWS V14.01,2013-11-23 06:51:00,
2013-11-23 01:01:00,56.6,39.2,30.37,SSE,149,0.0,0.0,52,0.00,,OVC018,0.00,VWS V14.01,2013-11-23 07:01:00,
2013-11-23 01:06:00,56.6,39.2,30.37,SSE,149,0.0,0.0,52,0.00,,OVC018,0.00,VWS V14.01,2013-11-23 07:06:00,
2013-11-23 01:11:00,56.6,39.2,30.37,SSE,149,0.0,0.0,52,0.00,,OVC018,0.00,VWS V14.01,2013-11-23 07:11:00,
2013-11-23 01:16:00,56.6,39.2,30.38,SSE,149,0.0,0.0,52,0.00,,OVC018,0.00,VWS V14.01,2013-11-23 07:16:00,
2013-11-23 01:21:00,56.6,39.2,30.38,SSE,149,0.0,0.0,52,0.00,,OVC018,0.00,VWS V14.01,2013-11-23 07:21:00,
2013-11-23 01:31:00,56.6,39.2,30.39,SSE,149,0.0,0.0,52,0.00,,OVC018,0.00,VWS V14.01,2013-11-23 07:31:00,
2013-11-23 01:36:00,56.6,39.2,30.39,SSE,149,0.0,0.0,52,0.00,,OVC018,0.00,VWS V14.01,2013-11-23 07:36:00,
2013-11-23 01:46:00,56.6,39.2,30.39,SSE,149,0.0,0.0,52,0.00,,OVC018,0.00,VWS V14.01,2013-11-23 07:46:00,
2013-11-23 01:56:00,56.6,39.2,30.39,SSE,149,0.0,0.0,52,0.00,,OVC018,0.00,VWS V14.01,2013-11-23 07:56:00,
2013-11-23 02:01:00,56.6,39.2,30.39,SSE,149,0.0,0.0,52,0.00,,OVC018,0.00,VWS V14.01,2013-11-23 08:01:00,
2013-11-23 02:06:00,56.6,39.2,30.39,SSE,149,0.0,0.0,52,0.00,,OVC018,0.00,VWS V14.01,2013-11-23 08:06:00,
2013-11-23 02:11:00,56.6,39.2,30.39,SSE,149,0.0,0.0,52,0.00,,OVC018,0.00,VWS V14.01,2013-11-23 08:11:00,
2013-11-23 02:16:00,56.6,39.2,30.39,SSE,149,0.0,0.0,52,0.00,,OVC018,0.00,VWS V14.01,2013-11-23 08:16:00,
2013-11-23 02:26:00,56.6,39.2,30.39,SSE,149,0.0,0.0,52,0.00,,OVC018,0.00,VWS V14.01,2013-11-23 08:26:00,
2013-11-23 02:31:00,56.6,39.2,30.38,SSE,149,0.0,0.0,52,0.00,,OVC018,0.00,VWS V14.01,2013-11-23 08:31:00,
2013-11-23 02:41:00,56.6,39.2,30.38,SSE,149,0.0,0.0,52,0.00,,OVC018,0.00,VWS V14.01,2013-11-23 08:41:00,
2013-11-23 02:46:00,56.6,39.2,30.38,SSE,149,0.0,0.0,52,0.00,,OVC018,0.00,VWS V14.01,2013-11-23 08:46:00,
2013-11-23 02:51:00,56.6,39.2,30.38,SSE,149,0.0,0.0,52,0.00,,OVC018,0.00,VWS V14.01,2013-11-23 08:51:00,
2013-11-23 02:56:00,56.6,39.2,30.38,SSE,149,0.0,0.0,52,0.00,,OVC018,0.00,VWS V14.01,2013-11-23 08:56:00,
2013-11-23 03:01:00,56.6,39.2,30.38,SSE,149,0.0,0.0,52,0.00,,OVC018,0.00,VWS V14.01,2013-11-23 09:01:00,
2013-11-23 03:11:00,56.6,39.2,30.38,SSE,149,0.0,0.0,52,0.00,,OVC018,0.00,VWS V14.01,2013-11-23 09:11:00,
2013-11-23 03:21:00,56.6,39.2,30.39,SSE,149,0.0,0.0,52,0.00,,OVC018,0.00,VWS V14.01,2013-11-23 09:21:00,
2013-11-23 03:31:00,56.6,39.2,30.38,SSE,149,0.0,0.0,52,0.00,,OVC022,0.00,VWS V14.01,2013-11-23 09:31:00,
2013-11-23 03:36:00,56.6,39.2,30.38,SSE,149,0.0,0.0,52,0.00,,OVC022,0.00,VWS V14.01,2013-11-23 09:36:00,
2013-11-23 03:46:00,56.6,39.2,30.37,SSE,149,0.0,0.0,52,0.00,,OVC022,0.00,VWS V14.01,2013-11-23 09:46:00,
2013-11-23 03:51:00,56.6,39.2,30.37,SSE,149,0.0,0.0,52,0.00,,OVC022,0.00,VWS V14.01,2013-11-23 09:51:00,
2013-11-23 03:56:00,56.6,39.2,30.37,SSE,149,0.0,0.0,52,0.00,,OVC022,0.00,VWS V14.01,2013-11-23 09:56:00,
2013-11-23 04:06:00,56.6,39.2,30.38,SSE,149,0.0,0.0,52,0.00,,OVC022,0.00,VWS V14.01,2013-11-23 10:06:00,
2013-11-23 04:11:00,56.6,39.2,30.38,SSE,149,0.0,0.0,52,0.00,,OVC022,0.00,VWS V14.01,2013-11-23 10:11:00,
2013-11-23 04:16:00,56.6,39.2,30.40,SSE,149,0.0,0.0,52,0.00,,OVC022,0.00,VWS V14.01,2013-11-23 10:16:00,
2013-11-23 04:26:00,56.6,39.2,30.40,SSE,149,0.0,0.0,52,0.00,,BKN100,0.00,VWS V14.01,2013-11-23 10:26:00,
2013-11-23 04:31:00,56.6,39.2,30.40,SSE,149,0.0,0.0,52,0.00,,BKN100,0.00,VWS V14.01,2013-11-23 10:31:00,
2013-11-23 04:36:00,56.6,39.2,30.40,SSE,149,0.0,0.0,52,0.00,,BKN100,0.00,VWS V14.01,2013-11-23 10:36:00,
2013-11-23 04:41:00,56.6,39.2,30.40,SSE,149,0.0,0.0,52,0.00,,BKN100,0.00,VWS V14.01,2013-11-23 10:41:00,
2013-11-23 04:51:00,56.6,39.2,30.40,SSE,149,0.0,0.0,52,0.00,,BKN100,0.00,VWS V14.01,2013-11-23 10:51:00,
2013-11-23 04:56:00,56.6,39.2,30.40,SSE,149,0.0,0.0,52,0.00,,BKN100,0.00,VWS V14.01,2013-11-23 10:56:00,
2013-11-23 05:01:00,56.6,39.2,30.40,SSE,149,0.0,0.0,52,0.00,,FEW022,0.00,VWS V14.01,2013-11-23 11:01:00,
2013-11-23 05:11:00,56.6,39.2,30.40,SSE,149,0.0,0.0,52,0.00,,FEW022,0.00,VWS V14.01,2013-11-23 11:11:00,
2013-11-23 05:16:00,56.6,39.2,30.41,SSE,149,0.0,0.0,52,0.00,,FEW022,0.00,VWS V14.01,2013-11-23 11:16:00,
2013-11-23 05:21:00,56.6,39.2,30.41,SSE,149,0.0,0.0,52,0.00,,FEW022,0.00,VWS V14.01,2013-11-23 11:21:00,
2013-11-23 05:26:00,56.6,39.2,30.41,SSE,149,0.0,0.0,52,0.00,,FEW022,0.00,VWS V14.01,2013-11-23 11:26:00,
2013-11-23 05:36:00,56.6,39.2,30.41,SSE,149,0.0,0.0,52,0.00,,FEW020,0.00,VWS V14.01,2013-11-23 11:36:00,
2013-11-23 05:41:00,56.6,39.2,30.41,SSE,149,0.0,0.0,52,0.00,,FEW020,0.00,VWS V14.01,2013-11-23 11:41:00,
2013-11-23 05:46:00,56.6,39.2,30.41,SSE,149,0.0,0.0,52,0.00,,FEW020,0.00,VWS V14.01,2013-11-23 11:46:00,
2013-11-23 05:51:00,56.6,39.2,30.41,SSE,149,0.0,0.0,52,0.00,,FEW020,0.00,VWS V14.01,2013-11-23 11:51:00,
2013-11-23 06:01:00,56.6,39.2,30.42,SSE,149,0.0,0.0,52,0.00,,FEW020,0.00,VWS V14.01,2013-11-23 12:01:00,
2013-11-23 06:11:00,56.6,39.2,30.42,SSE,149,0.0,0.0,52,0.00,,FEW020,0.00,VWS V14.01,2013-11-23 12:11:00,
2013-11-23 06:16:00,56.6,39.2,30.43,SSE,149,0.0,0.0,52,0.00,,FEW020,0.00,VWS V14.01,2013-11-23 12:16:00,
2013-11-23 06:21:00,56.6,39.2,30.43,SSE,149,0.0,0.0,52,0.00,,FEW020,0.00,VWS V14.01,2013-11-23 12:21:00,
2013-11-23 06:31:00,56.6,39.2,30.43,SSE,149,0.0,0.0,52,0.00,,FEW019,0.00,VWS V14.01,2013-11-23 12:31:00,
2013-11-23 06:41:00,56.6,39.2,30.43,SSE,149,0.0,0.0,52,0.00,,FEW019,0.00,VWS V14.01,2013-11-23 12:41:00,
2013-11-23 06:46:00,56.6,39.2,30.45,SSE,149,0.0,0.0,52,0.00,,FEW019,0.00,VWS V14.01,2013-11-23 12:46:00,
2013-11-23 06:56:00,56.6,39.2,30.45,SSE,149,0.0,0.0,52,0.00,,FEW019,0.00,VWS V14.01,2013-11-23 12:56:00,
2013-11-23 07:01:00,56.6,39.2,30.45,SSE,149,0.0,0.0,52,0.00,,FEW019,0.00,VWS V14.01,2013-11-23 13:01:00,
2013-11-23 07:11:00,56.6,39.2,30.45,SSE,149,0.0,0.0,52,0.00,,FEW019,0.00,VWS V14.01,2013-11-23 13:11:00,
2013-11-23 07:16:00,56.6,39.2,30.46,SSE,149,0.0,0.0,52,0.00,,FEW019,0.00,VWS V14.01,2013-11-23 13:16:00,
2013-11-23 07:21:00,56.6,39.2,30.46,SSE,149,0.0,0.0,52,0.00,,FEW019,0.00,VWS V14.01,2013-11-23 13:21:00,
2013-11-23 07:26:00,56.6,39.2,30.46,SSE,149,0.0,0.0,52,0.00,,FEW019,0.00,VWS V14.01,2013-11-23 13:26:00,
2013-11-23 07:36:00,56.6,39.2,30.46,SSE,149,0.0,0.0,52,0.00,,FEW019,0.00,VWS V14.01,2013-11-23 13:36:00,
2013-11-23 07:41:00,56.6,39.2,30.46,SSE,149,0.0,0.0,52,0.00,,FEW019,0.00,VWS V14.01,2013-11-23 13:41:00,
2013-11-23 07:46:00,56.6,39.2,30.47,SSE,149,0.0,0.0,52,0.00,,FEW019,0.00,VWS V14.01,2013-11-23 13:46:00,
2013-11-23 07:51:00,56.6,39.2,30.47,SSE,149,0.0,0.0,52,0.00,,FEW019,0.00,VWS V14.01,2013-11-23 13:51:00,
2013-11-23 08:01:00,56.6,39.2,30.47,SSE,149,0.0,0.0,52,0.00,,FEW019,0.00,VWS V14.01,2013-11-23 14:01:00,
2013-11-23 08:06:00,56.6,39.2,30.47,SSE,149,0.0,0.0,52,0.00,,BKN018,0.00,VWS V14.01,2013-11-23 14:06:00,
2013-11-23 08:11:00,56.6,39.2,30.47,SSE,149,0.0,0.0,52,0.00,,BKN018,0.00,VWS V14.01,2013-11-23 14:11:00,
2013-11-23 08:16:00,56.6,39.2,30.47,SSE,149,0.0,0.0,52,0.00,,BKN018,0.00,VWS V14.01,2013-11-23 14:16:00,
2013-11-23 08:21:00,56.6,39.2,30.47,SSE,149,0.0,0.0,52,0.00,,BKN018,0.00,VWS V14.01,2013-11-23 14:21:00,
2013-11-23 08:31:00,56.6,39.2,30.47,SSE,149,0.0,0.0,52,0.00,,FEW019,0.00,VWS V14.01,2013-11-23 14:31:00,
2013-11-23 08:41:00,56.6,39.2,30.47,SSE,149,0.0,0.0,52,0.00,,FEW019,0.00,VWS V14.01,2013-11-23 14:41:00,
2013-11-23 08:46:00,56.6,39.2,30.48,SSE,149,0.0,0.0,52,0.00,,FEW019,0.00,VWS V14.01,2013-11-23 14:46:00,
2013-11-23 08:56:00,56.6,39.2,30.48,SSE,149,0.0,0.0,52,0.00,,FEW019,0.00,VWS V14.01,2013-11-23 14:56:00,
2013-11-23 09:01:00,56.6,39.2,30.48,SSE,149,0.0,0.0,52,0.00,,FEW019,0.00,VWS V14.01,2013-11-23 15:01:00,
2013-11-23 09:06:00,56.6,39.2,30.48,SSE,149,0.0,0.0,52,0.00,,FEW019,0.00,VWS V14.01,2013-11-23 15:06:00,
2013-11-23 09:16:00,56.6,39.2,30.49,SSE,149,0.0,0.0,52,0.00,,FEW019,0.00,VWS V14.01,2013-11-23 15:16:00,
2013-11-23 09:21:00,56.6,39.2,30.49,SSE,149,0.0,0.0,52,0.00,,FEW019,0.00,VWS V14.01,2013-11-23 15:21:00,
2013-11-23 09:26:00,56.6,39.2,30.49,SSE,149,0.0,0.0,52,0.00,,FEW019,0.00,VWS V14.01,2013-11-23 15:26:00,
2013-11-23 09:31:00,56.6,39.2,30.50,SSE,149,0.0,0.0,52,0.00,,CLR,0.00,VWS V14.01,2013-11-23 15:31:00,
2013-11-23 09:41:00,56.6,39.2,30.50,SSE,149,0.0,0.0,52,0.00,,CLR,0.00,VWS V14.01,2013-11-23 15:41:00,
2013-11-23 09:46:00,56.6,39.2,30.50,SSE,149,0.0,0.0,52,0.00,,CLR,0.00,VWS V14.01,2013-11-23 15:46:00,
2013-11-23 09:56:00,56.6,39.2,30.50,SSE,149,0.0,0.0,52,0.00,,CLR,0.00,VWS V14.01,2013-11-23 15:56:00,
2013-11-23 10:01:00,56.6,39.2,30.49,SSE,149,0.0,0.0,52,0.00,,CLR,0.00,VWS V14.01,2013-11-23 16:01:00,
2013-11-23 10:06:00,56.6,39.2,30.49,SSE,149,0.0,0.0,52,0.00,,CLR,0.00,VWS V14.01,2013-11-23 16:06:00,
2013-11-23 10:11:00,56.6,39.2,30.49,SSE,149,0.0,0.0,52,0.00,,CLR,0.00,VWS V14.01,2013-11-23 16:11:00,
2013-11-23 10:21:00,56.6,39.2,30.49,SSE,149,0.0,0.0,52,0.00,,CLR,0.00,VWS V14.01,2013-11-23 16:21:00,
2013-11-23 10:31:00,56.6,39.2,30.49,SSE,149,0.0,0.0,52,0.00,,CLR,0.00,VWS V14.01,2013-11-23 16:31:00,
2013-11-23 10:41:00,56.6,39.2,30.49,SSE,149,0.0,0.0,52,0.00,,CLR,0.00,VWS V14.01,2013-11-23 16:41:00,
2013-11-23 10:46:00,56.6,39.2,30.48,SSE,149,0.0,0.0,52,0.00,,CLR,0.00,VWS V14.01,2013-11-23 16:46:00,
2013-11-23 10:56:00,56.6,39.2,30.48,SSE,149,0.0,0.0,52,0.00,,CLR,0.00,VWS V14.01,2013-11-23 16:56:00,
2013-11-23 11:01:00,56.6,39.2,30.47,SSE,149,0.0,0.0,52,0.00,,CLR,0.00,VWS V14.01,2013-11-23 17:01:00,
2013-11-23 11:11:00,56.6,39.2,30.47,SSE,149,0.0,0.0,52,0.00,,CLR,0.00,VWS V14.01,2013-11-23 17:11:00,
2013-11-23 11:16:00,56.6,39.2,30.47,SSE,149,0.0,0.0,52,0.00,,CLR,0.00,VWS V14.01,2013-11-23 17:16:00,
2013-11-23 11:21:00,56.6,39.2,30.47,SSE,149,0.0,0.0,52,0.00,,CLR,0.00,VWS V14.01,2013-11-23 17:21:00,
2013-11-23 11:26:00,56.6,39.2,30.47,SSE,149,0.0,0.0,52,0.00,,CLR,0.00,VWS V14.01,2013-11-23 17:26:00,
2013-11-23 11:36:00,56.6,39.2,30.47,SSE,149,0.0,0.0,52,0.00,,FEW120,0.00,VWS V14.01,2013-11-23 17:36:00,
2013-11-23 11:41:00,56.6,39.2,30.47,SSE,149,0.0,0.0,52,0.00,,FEW120,0.00,VWS V14.01,2013-11-23 17:41:00,
2013-11-23 11:46:00,56.6,39.2,30.46,SSE,149,0.0,0.0,52,0.00,,FEW120,0.00,VWS V14.01,2013-11-23 17:46:00,
2013-11-23 11:51:00,56.6,39.2,30.46,SSE,149,0.0,0.0,52,0.00,,FEW120,0.00,VWS V14.01,2013-11-23 17:51:00,
2013-11-23 12:01:00,56.6,39.2,30.46,SSE,149,0.0,0.0,52,0.00,,FEW120,0.00,VWS V14.01,2013-11-23 18:01:00,
2013-11-23 12:06:00,56.6,39.2,30.46,SSE,149,0.0,0.0,52,0.00,,FEW120,0.00,VWS V14.01,2013-11-23 18:06:00,
2013-11-23 12:11:00,56.6,39.2,30.46,SSE,149,0.0,0.0,52,0.00,,FEW120,0.00,VWS V14.01,2013-11-23 18:11:00,
2013-11-23 12:16:00,56.6,39.2,30.46,SSE,149,0.0,0.0,52,0.00,,FEW120,0.00,VWS V14.01,2013-11-23 18:16:00,
2013-11-23 12:21:00,56.6,39.2,30.46,SSE,149,0.0,0.0,52,0.00,,FEW120,0.00,VWS V14.01,2013-11-23 18:21:00,
2013-11-23 12:26:00,56.6,39.2,30.46,SSE,149,0.0,0.0,52,0.00,,FEW120,0.00,VWS V14.01,2013-11-23 18:26:00,
2013-11-23 12:36:00,41.9,15.6,30.46,North,355,8.0,11.0,34,0.00,,OVC120,0.00,VWS V14.01,2013-11-23 18:36:00,
2013-11-23 12:41:00,41.9,16.9,30.46,NNW,332,6.0,12.0,36,0.00,,OVC120,0.00,VWS V14.01,2013-11-23 18:41:00,
2013-11-23 12:46:00,42.2,18.4,30.46,North,350,9.0,13.0,38,0.00,,OVC120,0.00,VWS V14.01,2013-11-23 18:46:00,
2013-11-23 12:51:00,42.3,17.9,30.46,North,360,4.0,10.0,37,0.00,,OVC120,0.00,VWS V14.01,2013-11-23 18:51:00,
2013-11-23 12:56:00,42.5,18.1,30.46,North,5,8.0,12.0,37,0.00,,OVC120,0.00,VWS V14.01,2013-11-23 18:56:00,
2013-11-23 13:01:00,42.1,17.7,30.45,North,5,5.0,13.0,37,0.00,,OVC120,0.00,VWS V14.01,2013-11-23 19:01:00,
2013-11-23 13:06:00,42.1,17.7,30.45,North,355,12.0,12.0,37,0.00,,OVC120,0.00,VWS V14.01,2013-11-23 19:06:00,
2013-11-23 13:11:00,42.2,17.8,30.45,NNW,348,5.0,12.0,37,0.00,,OVC120,0.00,VWS V14.01,2013-11-23 19:11:00,
2013-11-23 13:21:00,42.5,18.1,30.45,North,355,5.0,12.0,37,0.00,,OVC120,0.00,VWS V14.01,2013-11-23 19:21:00,
2013-11-23 13:26:00,42.6,18.8,30.45,NW,323,4.0,17.0,38,0.00,,OVC120,0.00,VWS V14.01,2013-11-23 19:26:00,
2013-11-23 13:31:00,42.8,16.4,30.45,NNW,335,8.0,16.0,34,0.00,,CLR,0.00,VWS V14.01,2013-11-23 19:31:00,
2013-11-23 13:36:00,42.8,15.7,30.45,NNW,329,8.0,14.0,33,0.00,,CLR,0.00,VWS V14.01,2013-11-23 19:36:00,
2013-11-23 13:46:00,42.5,16.1,30.45,North,355,6.0,14.0,34,0.00,,CLR,0.00,VWS V14.01,2013-11-23 19:46:00,
2013-11-23 13:51:00,42.2,16.5,30.45,NNW,335,5.0,15.0,35,0.00,,CLR,0.00,VWS V14.01,2013-11-23 19:51:00,
2013-11-23 14:01:00,42.3,16.6,30.45,North,5,10.0,17.0,35,0.00,,CLR,0.00,VWS V14.01,2013-11-23 20:01:00,
2013-11-23 14:06:00,42.8,17.1,30.45,NW,324,8.0,18.0,35,0.00,,CLR,0.00,VWS V14.01,2013-11-23 20:06:00,
2013-11-23 14:16:00,43.1,17.3,30.45,WNW,297,8.0,13.0,35,0.00,,CLR,0.00,VWS V14.01,2013-11-23 20:16:00,
2013-11-23 14:21:00,42.9,17.1,30.45,North,355,13.0,15.0,35,0.00,,CLR,0.00,VWS V14.01,2013-11-23 20:21:00,
2013-11-23 14:31:00,42.5,16.8,30.45,North,355,6.0,12.0,35,0.00,,CLR,0.00,VWS V14.01,2013-11-23 20:31:00,
2013-11-23 14:36:00,42.5,18.1,30.45,North,10,3.0,11.0,37,0.00,,CLR,0.00,VWS V14.01,2013-11-23 20:36:00,
2013-11-23 14:41:00,42.6,18.8,30.45,North,350,4.0,10.0,38,0.00,,CLR,0.00,VWS V14.01,2013-11-23 20:41:00,
2013-11-23 14:51:00,42.5,20.5,30.45,NNE,20,6.0,7.0,41,0.00,,CLR,0.00,VWS V14.01,2013-11-23 20:51:00,
2013-11-23 14:56:00,42.5,20.5,30.45,North,9,6.0,9.0,41,0.00,,CLR,0.00,VWS V14.01,2013-11-23 20:56:00,
2013-11-23 15:01:00,42.3,20.3,30.45,NNW,332,4.0,10.0,41,0.00,,CLR,0.00,VWS V14.01,2013-11-23 21:01:00,
2013-11-23 15:06:00,42.6,22.2,30.45,North,355,5.0,9.0,44,0.00,,CLR,0.00,VWS V14.01,2013-11-23 21:06:00,
2013-11-23 15:11:00,42.8,20.2,30.45,North,355,7.0,11.0,40,0.00,,CLR,0.00,VWS V14.01,2013-11-23 21:11:00,
2013-11-23 15:21:00,42.9,20.3,30.46,North,355,5.0,14.0,40,0.00,,CLR,0.00,VWS V14.01,2013-11-23 21:21:00,
2013-11-23 15:26:00,42.8,19.6,30.46,North,5,9.0,14.0,39,0.00,,CLR,0.00,VWS V14.01,2013-11-23 21:26:00,
2013-11-23 15:36:00,42.3,24.0,30.46,NNE,27,9.0,12.0,48,0.00,,CLR,0.00,VWS V14.01,2013-11-23 21:36:00,
2013-11-23 15:41:00,41.8,25.0,30.46,NNE,18,6.0,11.0,51,0.00,,CLR,0.00,VWS V14.01,2013-11-23 21:41:00,
2013-11-23 15:51:00,41.1,25.3,30.47,NNE,14,3.0,11.0,53,0.00,,CLR,0.00,VWS V14.01,2013-11-23 21:51:00,
2013-11-23 15:56:00,40.8,25.0,30.47,North,5,8.0,14.0,53,0.00,,CLR,0.00,VWS V14.01,2013-11-23 21:56:00,
2013-11-23 16:01:00,40.5,24.7,30.48,NNE,13,12.0,18.0,53,0.00,,CLR,0.00,VWS V14.01,2013-11-23 22:01:00,
2013-11-23 16:11:00,39.5,23.8,30.48,North,9,10.0,18.0,53,0.00,,CLR,0.00,VWS V14.01,2013-11-23 22:11:00,
2013-11-23 16:16:00,39.2,24.8,30.47,North,360,11.0,22.0,56,0.00,,CLR,0.00,VWS V14.01,2013-11-23 22:16:00,
2013-11-23 16:26:00,37.6,22.0,30.47,NNW,346,14.0,22.0,53,0.00,,CLR,0.00,VWS V14.01,2013-11-23 22:26:00,
2013-11-23 16:31:00,37.2,22.5,30.49,North,355,4.0,23.0,55,0.00,,CLR,0.00,VWS V14.01,2013-11-23 22:31:00,
2013-11-23 16:36:00,36.8,22.6,30.49,North,11,13.0,16.0,56,0.00,,CLR,0.00,VWS V14.01,2013-11-23 22:36:00,
2013-11-23 16:41:00,36.6,22.4,30.49,North,5,6.0,14.0,56,0.00,,CLR,0.00,VWS V14.01,2013-11-23 22:41:00,
2013-11-23 16:46:00,36.6,22.4,30.50,North,5,6.0,6.0,56,0.00,,CLR,0.00,VWS V14.01,2013-11-23 22:46:00,
2013-11-23 16:51:00,36.6,22.4,30.50,North,5,6.0,6.0,56,0.00,,CLR,0.00,VWS V14.01,2013-11-23 22:51:00,
2013-11-23 17:01:00,36.6,22.4,30.50,North,5,6.0,6.0,56,0.00,,CLR,0.00,VWS V14.01,2013-11-23 23:01:00,
2013-11-23 17:06:00,36.6,22.4,30.50,North,5,6.0,6.0,56,0.00,,CLR,0.00,VWS V14.01,2013-11-23 23:06:00,
2013-11-23 17:11:00,36.6,22.4,30.50,North,5,6.0,6.0,56,0.00,,CLR,0.00,VWS V14.01,2013-11-23 23:11:00,
2013-11-23 17:16:00,36.6,22.4,30.51,North,5,6.0,6.0,56,0.00,,CLR,0.00,VWS V14.01,2013-11-23 23:16:00,
2013-11-23 17:21:00,36.6,22.4,30.51,North,5,6.0,6.0,56,0.00,,CLR,0.00,VWS V14.01,2013-11-23 23:21:00,
2013-11-23 17:26:00,36.6,22.4,30.51,North,5,6.0,6.0,56,0.00,,CLR,0.00,VWS V14.01,2013-11-23 23:26:00,
2013-11-23 17:31:00,36.6,22.4,30.51,North,5,6.0,6.0,56,0.00,,CLR,0.00,VWS V14.01,2013-11-23 23:31:00,
2013-11-23 17:36:00,36.6,22.4,30.51,North,5,6.0,6.0,56,0.00,,CLR,0.00,VWS V14.01,2013-11-23 23:36:00,
2013-11-23 17:46:00,36.6,22.4,30.52,North,5,6.0,6.0,56,0.00,,CLR,0.00,VWS V14.01,2013-11-23 23:46:00,
2013-11-23 17:51:00,36.6,22.4,30.52,North,5,6.0,6.0,56,0.00,,CLR,0.00,VWS V14.01,2013-11-23 23:51:00,
2013-11-23 18:01:00,36.6,22.4,30.52,North,5,6.0,6.0,56,0.00,,CLR,0.00,VWS V14.01,2013-11-24 00:01:00,
2013-11-23 18:06:00,36.6,22.4,30.52,North,5,6.0,6.0,56,0.00,,CLR,0.00,VWS V14.01,2013-11-24 00:06:00,
2013-11-23 18:11:00,36.6,22.4,30.52,North,5,6.0,6.0,56,0.00,,CLR,0.00,VWS V14.01,2013-11-24 00:11:00,
2013-11-23 18:16:00,36.6,22.4,30.53,North,5,6.0,6.0,56,0.00,,CLR,0.00,VWS V14.01,2013-11-24 00:16:00,
2013-11-23 18:26:00,36.6,22.4,30.53,North,5,6.0,6.0,56,0.00,,CLR,0.00,VWS V14.01,2013-11-24 00:26:00,
2013-11-23 18:31:00,36.6,22.4,30.53,North,5,6.0,6.0,56,0.00,,CLR,0.00,VWS V14.01,2013-11-24 00:31:00,
2013-11-23 18:36:00,36.6,22.4,30.53,North,5,6.0,6.0,56,0.00,,CLR,0.00,VWS V14.01,2013-11-24 00:36:00,
2013-11-23 18:41:00,36.6,22.4,30.53,North,5,6.0,6.0,56,0.00,,CLR,0.00,VWS V14.01,2013-11-24 00:41:00,
2013-11-23 18:51:00,36.6,22.4,30.53,North,5,6.0,6.0,56,0.00,,CLR,0.00,VWS V14.01,2013-11-24 00:51:00,
2013-11-23 18:56:00,36.6,22.4,30.53,North,5,6.0,6.0,56,0.00,,CLR,0.00,VWS V14.01,2013-11-24 00:56:00,
2013-11-23 19:06:00,36.6,22.4,30.54,North,5,6.0,6.0,56,0.00,,CLR,0.00,VWS V14.01,2013-11-24 01:06:00,
2013-11-23 19:11:00,36.6,22.4,30.54,North,5,6.0,6.0,56,0.00,,CLR,0.00,VWS V14.01,2013-11-24 01:11:00,
2013-11-23 19:16:00,36.6,22.4,30.55,North,5,6.0,6.0,56,0.00,,CLR,0.00,VWS V14.01,2013-11-24 01:16:00,
2013-11-23 19:21:00,36.6,22.4,30.55,North,5,6.0,6.0,56,0.00,,CLR,0.00,VWS V14.01,2013-11-24 01:21:00,
2013-11-23 19:31:00,36.6,22.4,30.56,North,5,6.0,6.0,56,0.00,,CLR,0.00,VWS V14.01,2013-11-24 01:31:00,
2013-11-23 19:36:00,36.6,22.4,30.56,North,5,6.0,6.0,56,0.00,,CLR,0.00,VWS V14.01,2013-11-24 01:36:00,
2013-11-23 19:41:00,36.6,22.4,30.56,North,5,6.0,6.0,56,0.00,,CLR,0.00,VWS V14.01,2013-11-24 01:41:00,
2013-11-23 19:46:00,36.6,22.4,30.56,North,5,6.0,6.0,56,0.00,,CLR,0.00,VWS V14.01,2013-11-24 01:46:00,
2013-11-23 19:56:00,36.6,22.4,30.56,North,5,6.0,6.0,56,0.00,,CLR,0.00,VWS V14.01,2013-11-24 01:56:00,
2013-11-23 20:01:00,36.6,22.4,30.56,North,5,6.0,6.0,56,0.00,,CLR,0.00,VWS V14.01,2013-11-24 02:01:00,
2013-11-23 20:06:00,36.6,22.4,30.56,North,5,6.0,6.0,56,0.00,,CLR,0.00,VWS V14.01,2013-11-24 02:06:00,
2013-11-23 20:16:00,36.6,22.4,30.57,North,5,6.0,6.0,56,0.00,,CLR,0.00,VWS V14.01,2013-11-24 02:16:00,
2013-11-23 20:21:00,36.6,22.4,30.57,North,5,6.0,6.0,56,0.00,,CLR,0.00,VWS V14.01,2013-11-24 02:21:00,
2013-11-23 20:26:00,36.6,22.4,30.57,North,5,6.0,6.0,56,0.00,,CLR,0.00,VWS V14.01,2013-11-24 02:26:00,
2013-11-23 20:36:00,36.6,22.4,30.57,North,5,6.0,6.0,56,0.00,,CLR,0.00,VWS V14.01,2013-11-24 02:36:00,
2013-11-23 20:41:00,36.6,22.4,30.57,North,5,6.0,6.0,56,0.00,,CLR,0.00,VWS V14.01,2013-11-24 02:41:00,
2013-11-23 20:51:00,36.6,22.4,30.57,North,5,6.0,6.0,56,0.00,,CLR,0.00,VWS V14.01,2013-11-24 02:51:00,
2013-11-23 20:56:00,36.6,22.4,30.57,North,5,6.0,6.0,56,0.00,,CLR,0.00,VWS V14.01,2013-11-24 02:56:00,
2013-11-23 21:01:00,36.6,22.4,30.58,North,5,6.0,6.0,56,0.00,,CLR,0.00,VWS V14.01,2013-11-24 03:01:00,
2013-11-23 21:06:00,36.6,22.4,30.58,North,5,6.0,6.0,56,0.00,,CLR,0.00,VWS V14.01,2013-11-24 03:06:00,
2013-11-23 21:16:00,36.6,22.4,30.58,North,5,6.0,6.0,56,0.00,,CLR,0.00,VWS V14.01,2013-11-24 03:16:00,
2013-11-23 21:21:00,36.6,22.4,30.58,North,5,6.0,6.0,56,0.00,,CLR,0.00,VWS V14.01,2013-11-24 03:21:00,
2013-11-23 21:26:00,36.6,22.4,30.58,North,5,6.0,6.0,56,0.00,,CLR,0.00,VWS V14.01,2013-11-24 03:26:00,
2013-11-23 21:31:00,36.6,22.4,30.58,North,5,6.0,6.0,56,0.00,,CLR,0.00,VWS V14.01,2013-11-24 03:31:00,
2013-11-23 21:36:00,36.6,22.4,30.58,North,5,6.0,6.0,56,0.00,,CLR,0.00,VWS V14.01,2013-11-24 03:36:00,
2013-11-23 21:41:00,36.6,22.4,30.58,North,5,6.0,6.0,56,0.00,,CLR,0.00,VWS V14.01,2013-11-24 03:41:00,
2013-11-23 21:46:00,36.6,22.4,30.59,North,5,6.0,6.0,56,0.00,,CLR,0.00,VWS V14.01,2013-11-24 03:46:00,
2013-11-23 21:56:00,36.6,22.4,30.59,North,5,6.0,6.0,56,0.00,,CLR,0.00,VWS V14.01,2013-11-24 03:56:00,
2013-11-23 22:01:00,36.6,22.4,30.59,North,5,6.0,6.0,56,0.00,,CLR,0.00,VWS V14.01,2013-11-24 04:01:00,
2013-11-23 22:06:00,36.6,22.4,30.59,North,5,6.0,6.0,56,0.00,,CLR,0.00,VWS V14.01,2013-11-24 04:06:00,
2013-11-23 22:11:00,36.6,22.4,30.59,North,5,6.0,6.0,56,0.00,,CLR,0.00,VWS V14.01,2013-11-24 04:11:00,
2013-11-23 22:21:00,36.6,22.4,30.59,North,5,6.0,6.0,56,0.00,,CLR,0.00,VWS V14.01,2013-11-24 04:21:00,
2013-11-23 22:26:00,36.6,22.4,30.59,North,5,6.0,6.0,56,0.00,,CLR,0.00,VWS V14.01,2013-11-24 04:26:00,
2013-11-23 22:31:00,36.6,22.4,30.60,North,5,6.0,6.0,56,0.00,,CLR,0.00,VWS V14.01,2013-11-24 04:31:00,
2013-11-23 22:41:00,36.6,22.4,30.60,North,5,6.0,6.0,56,0.00,,CLR,0.00,VWS V14.01,2013-11-24 04:41:00,
2013-11-23 22:46:00,36.6,22.4,30.60,North,5,6.0,6.0,56,0.00,,CLR,0.00,VWS V14.01,2013-11-24 04:46:00,
2013-11-23 22:56:00,36.6,22.4,30.60,North,5,6.0,6.0,56,0.00,,CLR,0.00,VWS V14.01,2013-11-24 04:56:00,
2013-11-23 23:01:00,36.6,22.4,30.60,North,5,6.0,6.0,56,0.00,,CLR,0.00,VWS V14.01,2013-11-24 05:01:00,
2013-11-23 23:06:00,36.6,22.4,30.60,North,5,6.0,6.0,56,0.00,,CLR,0.00,VWS V14.01,2013-11-24 05:06:00,
2013-11-23 23:11:00,36.6,22.4,30.60,North,5,6.0,6.0,56,0.00,,CLR,0.00,VWS V14.01,2013-11-24 05:11:00,
2013-11-23 23:16:00,36.6,22.4,30.60,North,5,6.0,6.0,56,0.00,,CLR,0.00,VWS V14.01,2013-11-24 05:16:00,
2013-11-23 23:26:00,36.6,22.4,30.60,North,5,6.0,6.0,56,0.00,,CLR,0.00,VWS V14.01,2013-11-24 05:26:00,
2013-11-23 23:36:00,36.6,22.4,30.61,North,5,6.0,6.0,56,0.00,,CLR,0.00,VWS V14.01,2013-11-24 05:36:00,
2013-11-23 23:41:00,36.6,22.4,30.61,North,5,6.0,6.0,56,0.00,,CLR,0.00,VWS V14.01,2013-11-24 05:41:00,
2013-11-23 23:46:00,36.6,22.4,30.61,North,5,6.0,6.0,56,0.00,,CLR,0.00,VWS V14.01,2013-11-24 05:46:00,
2013-11-23 23:56:00,36.6,22.4,30.61,North,5,6.0,6.0,56,0.00,,CLR,0.00,VWS V14.01,2013-11-24 05:56:00,